This is the latest recevied weather packets stored in our database for station/object KT2UU-13. If no packets are shown the sender has not sent any weather packets the latest 10 day(s).
| Time | Temp. | Humidity | Pressure | Rain* | Wind** | Luminosity | Snow |
|---|---|---|---|---|---|---|---|
| 1777539938 | 13.89° C | 99% | 1012.2 hPa | 1.27 mm | - | - | - |
| 1777539636 | 13.89° C | 99% | 1012.6 hPa | 0 mm | - | - | - |
| 1777539332 | 13.89° C | 99% | 1012.8 hPa | 1.78 mm | - | - | - |
| 1777539028 | 13.89° C | 99% | 1012.6 hPa | 1.27 mm | - | - | - |
| 1777538725 | 13.89° C | 99% | 1012.5 hPa | 1.27 mm | - | - | - |
| 1777538420 | 13.89° C | 99% | 1012.4 hPa | 1.78 mm | - | - | - |
| 1777538115 | 13.89° C | 99% | 1012.5 hPa | 1.78 mm | - | - | - |
| 1777537810 | 13.89° C | 99% | 1013 hPa | 1.27 mm | - | - | - |
| 1777537509 | 13.89° C | 99% | 1013.2 hPa | 4.32 mm | - | - | - |
| 1777537209 | 13.89° C | 98% | 1012.8 hPa | 4.83 mm | - | - | - |
| 1777536905 | 13.89° C | 98% | 1012.6 hPa | 1.78 mm | - | - | - |
| 1777536603 | 13.89° C | 98% | 1012.7 hPa | 1.27 mm | - | - | - |
| 1777536300 | 13.89° C | 98% | 1012.5 hPa | 3.05 mm | - | - | - |
| 1777535996 | 13.89° C | 98% | 1012.5 hPa | 1.78 mm | - | - | - |
| 1777535691 | 14.44° C | 98% | 1012.6 hPa | 1.78 mm | - | - | - |
| 1777535389 | 14.44° C | 97% | 1012.8 hPa | 3.05 mm | - | - | - |
| 1777535086 | 14.44° C | 97% | 1012.7 hPa | 1.27 mm | - | - | - |
| 1777534783 | 14.44° C | 97% | 1013 hPa | 1.78 mm | - | - | - |
| 1777534479 | 14.44° C | 97% | 1013 hPa | 3.05 mm | - | - | - |
| 1777534177 | 14.44° C | 97% | 1013.1 hPa | 3.05 mm | - | - | - |
| 1777533874 | 15° C | 96% | 1013.5 hPa | 4.83 mm | - | - | - |
| 1777533571 | 15° C | 96% | 1014 hPa | 4.32 mm | - | - | - |
| 1777533267 | 15° C | 96% | 1014.3 hPa | 6.1 mm | - | - | - |
| 1777532964 | 15° C | 95% | 1014.2 hPa | 10.67 mm | - | - | - |
| 1777532661 | 15.56° C | 95% | 1014.1 hPa | 6.6 mm | - | - | - |
* Rain latest hour (hover to see other rain measurements)
** Current wind speed in m/s (hover to see current wind gust speed)